Regional Weather Roundup
Issued by NWS Midland/Odessa, TX

Home | Current Version | Previous Version | Text Only | Print | Product List | Glossary On
Versions: 1 2 3 4 5 6 7 8 9 10 11 12 13 14 15 16 17 18 19 20 21 22 23 24 25 26 27 28 29 30 31 32 33 34 35 36 37 38 39 40 41 42 43 44 45 46 47 48 49 50
070
ASUS44 KMAF 061210
RWRMAF
MIDLAND AREA WEATHER ROUNDUP
NATIONAL WEATHER SERVICE MIDLAND TX
600 AM CST SAT FEB 06 2016

...IN SOUTHWEST TEXAS AND SOUTHEAST NEW MEXICO...

CITY           SKY/WX    TMP DP  RH WIND       PRES   REMARKS
ALPINE         CLOUDY    23  13  64 SW9       30.48F WCI  13
ANDREWS        FAIR      27  17  65 W8        30.41S WCI  18
ARTESIA        CLOUDY    21   9  58 SW5       30.40S WCI  15
BIG SPRING     CLEAR     26  17  68 NW3       30.43S
CARLSBAD       CLOUDY    22  12  65 W3        30.40F
DRYDEN           N/A     36  18  48 N5        30.42S WCI  32
FORT STOCKTON  CLEAR     31  18  58 SW12      30.44F WCI  22
GUAD PASS      CLOUDY    27  10  49 W16       30.38F WCI  15
HOBBS          CLOUDY    19  16  86 NW5       30.40S WCI  13
MARFA          CLOUDY    15   7  70 CALM      30.44F
MIDLAND AIRPK  CLEAR     30  20  65 NW8       30.42S WCI  22
MIDLAND INTL   CLEAR     27  18  69 NW10      30.41R WCI  17
ODESSA         CLEAR     28  17  63 NW9       30.42R WCI  19
PECOS          PTCLDY    26  13  57 E5        30.46S WCI  20
PRESIDIO       FAIR      36   9  33 CALM      30.46S
SEMINOLE       CLEAR     22  17  78 NW8       30.41S WCI  13
SNYDER           N/A     27  19  71 W7        30.40R WCI  20
WINK           CLOUDY    23  15  71 NW3       30.43S
$$
...OTHER STATIONS IN TEXAS...

CITY           SKY/WX    TMP DP  RH WIND       PRES   REMARKS
ABILENE        CLEAR     35  22  58 NW14      30.35R WCI  26
AMARILLO       CLEAR     20  14  77 W5        30.35S WCI  13
AUSTIN         CLEAR     47  26  44 W10       30.29F
BROWNSVILLE    PTCLDY    54  51  90 NW7       30.34R
CORPUS CHRISTI CLEAR     44  41  89 W9        30.33R WCI  39
DALLAS FTW     PTCLDY    37  32  82 CALM      30.22R
DEL RIO        CLEAR     36  24  62 NW5       30.43R WCI  32
EL PASO        CLEAR     24   5  44 E5        30.44R WCI  18
HOUSTON INT    TSTM      46  42  86 N3        30.31R FOG
LUBBOCK        CLEAR     22  16  78 NW8       30.36S WCI  12
SAN ANGELO     CLEAR     29  20  69 W5        30.40R WCI  24
SAN ANTONIO    PTCLDY    41  32  70 NW7       30.34S WCI  36
WACO           CLEAR     37  27  67 W8        30.25S WCI  31
WICHITA FALLS  NOT AVBL
$$
...OTHER LOCATIONS IN NEW MEXICO...

CITY           SKY/WX    TMP DP  RH WIND       PRES   REMARKS
ALAMAGORDO     CLOUDY    21   0  39 SW3       30.43S
ALBUQUERQUE    CLOUDY    26  12  55 N10       30.47F WCI  16
CANNON AFB     CLOUDY    17  11  80 N1        30.34S
CLOVIS         CLOUDY    16   9  73 CALM      30.35S
HOLLOMAN AFB   CLOUDY    16   1  51 W5        30.43R WCI   8
ROSWELL        CLOUDY    15   8  73 SW5       30.39R WCI   8
RUIDOSO        CLOUDY    28  -4  24 W13       30.37S WCI  18
SANTA FE       CLOUDY    18   8  65 NW7       30.42R WCI   9
TRUTH OR CONSE CLEAR     23   3  42 CALM      30.46R
TUCUMCARI      CLOUDY    14  10  84 NW6       30.34S WCI   5
$$




USA.gov is the U.S. government's official web portal to all federal, state and local government web resources and services.